Regional Weather Roundup
Issued by NWS

Home | Current Version | Previous Version | Graphics & Text | Print | Product List | Glossary On
Versions: 1 2 3 4 5 6 7 8 9 10 11 12 13 14 15 16 17 18 19 20 21 22 23 24 25 26 27 28 29 30 31 32 33 34 35 36 37 38 39 40 41 42 43 44 45 46 47 48 49 50
000
ASUS43 KLOT 300508
RWRIL

ILLINOIS REGIONAL WEATHER ROUNDUP
NATIONAL WEATHER SERVICE CHICAGO/ROMEOVILLE IL
1200 AM CDT FRI SEP 30 2016

NOTE: "FAIR" INDICATES FEW OR NO CLOUDS BELOW 12,000 FEET WITH NO
SIGNIFICANT WEATHER AND/OR OBSTRUCTIONS TO VISIBILITY.

* THESE STATIONS ARE NOT UNDER NWS QUALITY CONTROL. THEY ALSO MAY NOT
  REPORT WEATHER SUCH AS PRECIPITATION OR FOG.

ILZ001-002-007-009-015-016-024-300600-
NORTHWEST ILLINOIS

CITY           SKY/WX    TMP DP  RH WIND       PRES   REMARKS
MOLINE         PTCLDY    62  53  72 N6        30.23F
STERLING*      MOCLDY    60  55  83 N6        30.23F
SAVANNA*       CLEAR     57  52  82 N7        30.24F
$$

ILZ003-004-008-010-011-017-018-300600-
NORTH CENTRAL ILLINOIS

CITY           SKY/WX    TMP DP  RH WIND       PRES   REMARKS
ROCKFORD       CLOUDY    62  56  80 NE12      30.25F
FREEPORT*      MOCLDY    55  51  84 N6        30.26F
ROCHELLE*      MOCLDY    60  56  86 N12       30.22F
DE KALB*       LGT RAIN  60  58  94 N7        30.22F
$$

ILZ005-006-012>014-019>023-300600-
NORTHEAST ILLINOIS

CITY           SKY/WX    TMP DP  RH WIND       PRES   REMARKS
CHICAGO-OHARE  LGT RAIN  60  58  92 NE15      30.20F
CHICAGO-MIDWAY CLOUDY    62  58  86 NE15      30.19F
AURORA         CLOUDY    61  58  90 N6        30.20F
LANSING*       LGT RAIN  60  59  96 NE9       30.18F
JOLIET*        CLOUDY    62  60  94 NE8       30.19S
WAUKEGAN       CLOUDY    60  58  92 NE9       30.22F
DUPAGE AIRPORT CLOUDY    61  56  83 NE13      30.20F
KANKAKEE*      LGT RAIN  60  58  94 N7G16     30.16F
WHEELING       CLOUDY    60  58  92 NE12      30.22F
MORRIS*        CLOUDY    60  58  94 CALM      30.18S
ROMEOVILLE*    CLOUDY    60  60 100 NE14      30.18F
NORTHERLY ISL    N/A     61  57  87 NE13        N/A
$$

LMZ740>746-300600-
SOUTHERN LAKE MICHIGAN

STATION/POSITION SKY/WX   TEMP    WIND        PRES    VSBY  WAVE
                          AIR SEA DIR/SP/G                  HT/PER
                          (F)     (DEG/KT/KT) (MB)    (MI)  (FT/S)
SOUTHERN BUOY              63 68   50/ 21/ 27 1022.4F         5/ 5
WILMETTE HARBOR            62 56   80/ 17/ 21   N/A           6/ 6
HARRISON CRIB              63      30/ 23/ 25   N/A
BURNHAM HARBOR             61     360/ 13/ 16   N/A
CALUMET HARBOR             62      20/ 12/ 19 1021.6F
BURNS HARBOR               62      50/ 21/ 25 1021.7F
MICHIGAN CITY              60      10/ 21/ 23   N/A
MICHIGAN CITY 6N           61 64   40/ 17/ 23   N/A           6/ 6
ST. JOSEPH                 58 58   20/ 14/ 17 1021.6          4/ 6
$$

ILZ025>027-034>036-040-047-049-050-058-095>099-300600-
WEST-CENTRAL ILLINOIS

CITY           SKY/WX    TMP DP  RH WIND       PRES   REMARKS
QUINCY         CLEAR     59  54  83 N8        30.22S
GALESBURG*     CLEAR     57  52  84 N7        30.22F
MACOMB*        CLEAR     59  54  82 N10       30.24S
JACKSONVILLE*  PTCLDY    57  55  94 N6        30.18F
PITTSFIELD*    CLOUDY    63  56  80 N8        30.21S
$$

ILZ028>032-037-038-041>044-048-051>054-059>061-300600-
CENTRAL ILLINOIS

CITY           SKY/WX    TMP DP  RH WIND       PRES   REMARKS
PONTIAC        CLOUDY    61  61 100 N7        30.18F
DECATUR        CLEAR     59  56  89 N12       30.14F
PEORIA         CLEAR     60  57  89 NE7       30.18F
LACON*         CLOUDY    60  56  85 N5        30.19F
LINCOLN*       CLEAR     58  58  99 N6        30.16F
SPRINGFIELD    CLEAR     58  56  93 N8        30.17F
TAYLORVILLE    CLOUDY    59  58  97 N9        30.15F
$$

ILZ033-039-045-046-055>057-062-063-300600-
EAST-CENTRAL ILLINOIS

CITY           SKY/WX    TMP DP  RH WIND       PRES   REMARKS
CHAMPAIGN      CLOUDY    60  57  89 N13       30.13F
RANTOUL*       LGT RAIN  61  60  94 N10       30.13F
MATTOON        CLOUDY    58  56  93 N7        30.11F
PARIS*         CLOUDY    58  58  98 CALM      30.12S
$$

ILZ079-100>102-300600-
SOUTHWEST ILLINOIS

CITY           SKY/WX    TMP DP  RH WIND       PRES   REMARKS
ALTON          CLOUDY    58  57  96 NW6       30.16F
BELLEVILLE     PTCLDY    61  60  99 VRB7      30.13S
CAHOKIA*       CLOUDY    62  58  86 N9        30.15F
SPARTA*        CLOUDY    58  57  97 NW5       30.14F
$$

ILZ064>066-069>071-074>076-080>082-084>086-088>090-092>094-300600-
SOUTH-CENTRAL ILLINOIS

CITY           SKY/WX    TMP DP  RH WIND       PRES   REMARKS
CARBONDALE     CLOUDY    57  57 100 NW5       30.12F
CAIRO*         MOCLDY    56  56 100 NW6       30.12F
EFFINGHAM*     MOCLDY    59  59 100 NW5       30.13F
MARION         CLOUDY    57  57 100 CALM      30.12F FOG
MT. VERNON     PTCLDY    57  54  88 CALM      30.12F
CENTRALIA*     CLOUDY    60  60  97 NW3       30.11F
SALEM*         PTCLDY    60  58  92 CALM      30.12F
METROPOLIS*    MOCLDY    56  56  98 CALM      30.12S
$$

ILZ067-068-072-073-078-083-087-091-300600-
SOUTHEAST ILLINOIS

CITY           SKY/WX    TMP DP  RH WIND       PRES   REMARKS
LAWRENCEVILLE  CLOUDY    57  53  86 NW7       30.09F
FLORA*         MOCLDY    60  58  94 N5        30.11F
FAIRFIELD*       N/A     58  58  97 CALM      30.10S
HARRISBURG*    CLEAR     56  56 100 NW5       30.11F FOG
ROBINSON*      CLOUDY    56  54  91 N6        30.10F
CARMI*         PTCLDY    54  54 100 NW3       30.09F FOG
$$

ABBREVIATIONS USED IN REMARKS
   TC - TEMPERATURE IN CELSIUS
  WCI - WIND CHILL INDEX
   HX - HEAT INDEX
  VSB - VISIBILITY
$$





USA.gov is the U.S. government's official web portal to all federal, state and local government web resources and services.